Regional Weather Roundup
Issued by NWS

Home | Current Version | Previous Version | Graphics & Text | Print | Product List | Glossary Off
Versions: 1 2 3 4 5 6 7 8 9 10 11 12 13 14 15 16 17 18 19 20 21 22 23 24 25 26 27 28 29 30 31 32 33 34 35 36 37 38 39 40 41 42 43 44 45 46 47 48 49 50

000
ASUS43 KTOP 260008
RWRKS

WEATHER ROUNDUP FOR KANSAS
NATIONAL WEATHER SERVICE GOODLAND KS
700 PM CDT SAT OCT 25 2014

NOTE:  "FAIR" INDICATES FEW OR NO CLOUDS BELOW 12,000 FEET WITH NO
SIGNIFICANT WEATHER AND/OR OBSTRUCTIONS TO VISIBILITY.

KSZ001>006-013>018-027>032-041>047-260100-
NORTHWEST KANSAS

CITY           SKY/WX    TMP DP  RH WIND       PRES   REMARKS
GOODLAND       CLEAR     68  45  43 S7        29.99F
6HR MIN TEMP:  68; 6HR MAX TEMP:  86;

HAYS           CLEAR     73  52  46 SE10      29.94F
HILL CITY      CLEAR     76  47  35 SE6       29.94F
6HR MIN TEMP:  75; 6HR MAX TEMP:  88;

RUSSELL        CLEAR     73  52  47 SE10      29.93F
6HR MIN TEMP:  73; 6HR MAX TEMP:  88;

$$

KSZ061>065-074>080-084>089-260100-
SOUTHWEST KANSAS

CITY           SKY/WX    TMP DP  RH WIND       PRES   REMARKS
DODGE CITY     CLEAR     78  45  30 S13       29.98F
6HR MIN TEMP:  77; 6HR MAX TEMP:  90;

ELKHART          N/A     78  41  26 S9          N/A
GARDEN CITY    CLEAR     75  45  34 S7        29.97F
6HR MIN TEMP:  75; 6HR MAX TEMP:  90;

GREAT BEND     CLEAR     73  52  46 S8        29.96F
LIBERAL        CLEAR     79  43  27 S9        30.00S
PRATT          CLEAR     77  54  44 SE8       30.00S
$$

KSZ066>073-081>083-090>101-260100-
SOUTHEAST KANSAS

CITY           SKY/WX    TMP DP  RH WIND       PRES   REMARKS
CHANUTE        CLEAR     70  64  81 SE3       30.00F
6HR MIN TEMP:  70; 6HR MAX TEMP:  85;

COFFEYVILLE    CLEAR     74  64  71 S5        29.99F
6HR MIN TEMP:  74; 6HR MAX TEMP:  84;

HUTCHINSON     CLEAR     74  58  57 SE8       29.97F
6HR MIN TEMP:  74; 6HR MAX TEMP:  91;

MEDICINE LODGE   N/A     80  57  45 E5        29.97F
NEWTON         CLEAR     77  54  44 S7        30.01F
PARSONS        CLEAR     70  64  81 CALM      30.01F
6HR MIN TEMP:  70; 6HR MAX TEMP:  85;

WICHITA INTL   CLEAR     76  57  51 S8        29.98S
6HR MIN TEMP:  76; 6HR MAX TEMP:  91;

WICHITA JABRA  CLEAR     75  59  57 S7        29.98F
6HR MIN TEMP:  74; 6HR MAX TEMP:  90;

WICHITA MCCONL CLEAR     77  58  52 SE7       29.99F
WINFIELD       CLEAR     78  61  55 SE6       29.99F
6HR MIN TEMP:  78; 6HR MAX TEMP:  88;

$$

KSZ007>012-019>026-033>040-048>060-102>105-260100-
NORTHEAST KANSAS

CITY           SKY/WX    TMP DP  RH WIND       PRES   REMARKS
CONCORDIA      CLEAR     72  60  66 E6        29.96F
6HR MIN TEMP:  72; 6HR MAX TEMP:  83;

EMPORIA        CLEAR     69  60  73 S7        29.98F
6HR MIN TEMP:  69; 6HR MAX TEMP:  86;

LAWRENCE       CLEAR     66  57  72 NE3       30.00S
6HR MIN TEMP:  66; 6HR MAX TEMP:  81;

MANHATTAN      CLEAR     74  62  66 NE7       29.96F
6HR MIN TEMP:  74; 6HR MAX TEMP:  88;

MARYSVILLE     CLEAR     68  55  64 E6        29.99F
OLATHE IND     CLEAR     73  57  57 E5        30.01F
6HR MIN TEMP:  73; 6HR MAX TEMP:  81;

OLATHE EXE     CLEAR     73  57  57 E5        30.01S
6HR MIN TEMP:  72; 6HR MAX TEMP:  82;

SALINA         CLEAR     74  57  55 S9        29.95F
6HR MIN TEMP:  74; 6HR MAX TEMP:  90;

TOPEKA BILLARD CLEAR     71  59  65 E3        29.99F
6HR MIN TEMP:  71; 6HR MAX TEMP:  82;

TOPEKA FORBES  CLEAR     71  59  65 E6        29.99F
6HR MIN TEMP:  71; 6HR MAX TEMP:  81;

$$



USA.gov is the U.S. government's official web portal to all federal, state and local government web resources and services.